Location: Alphen
(52.1351°N, 4.6549°E)
Time: 02:00:19
(UTC+00:00)

Cosmos 2297 - Pass Details

Date: 27 January 2021
Orbit: 834 x 860 km, 71.0° (Epoch: 26 February)

Event Time Altitude Azimuth Distance (km) Brightness Sun altitude
Exits shadow 05:50:13 20° 304° (NW) 1,914 5.0 -15.0°
Maximum altitude 05:53:27 34° 253° (WSW) 1,379 4.4 -14.5°
Drops below altitude 10° 05:58:34 10° 190° (S) 2,491 6.2 -13.8°
Sets 06:01:12 0° 182° (S) 3,421 7.0 -13.4°
